Tracking 27112 objects as of 27-Mar-2023
HD Live streaming from Space Station
objects crossing your sky now

INTELSAT 3-F7

Track INTELSAT 3-F7 now!
INTELSAT 3-F7 is classified as:


NORAD ID: 4376
Int'l Code: 1970-032A
Perigee: 35,800.8 km
Apogee: 35,822.6 km
Inclination: 0.7 °
Period: 1,437.0 minutes
Semi major axis: 42182 km
RCS: 0.003 m2 (small)
Launch date: April 23, 1970
Source: International Telecommunications Satellite Organization (ITSO)
Launch site: AIR FORCE EASTERN TEST RANGE (AFETR)
Your satellite tracking list
Your tracking list is empty




NASA's NSSDC Master Catalog

Two Line Element Set (TLE):
1  4376U 70032A   23085.14193069 -.00000364  00000-0  00000+0 0  9996
2  4376   0.7209 253.4032 0002584 110.1792 356.4019  1.00207785193853
Source of the keplerian elements: AFSPC